Tracking 30743 objects as of 21-Jun-2025
HD Live streaming from Space Station
objects crossing your sky now

COSMOS 1607 FUEL CORE

Track COSMOS 1607 FUEL CORE now!
10-day predictions


NORAD ID: 15503
Int'l Code: 1984-112C
Perigee: 936.1 km
Apogee: 952.7 km
Inclination: 65.0 °
Period: 103.8 minutes
Semi major axis: 7315 km
RCS: 0.1774 m2 (medium)
Launch date: October 31, 1984
Source: Commonwealth of Independent States (former USSR) (CIS)
Launch site: TYURATAM MISSILE AND SPACE COMPLEX (TTMTR)

Note: This is SATELLITE DEBRIS
Your satellite tracking list
Your tracking list is empty




NASA's NSSDC Master Catalog

Two Line Element Set (TLE):
1 15503U 84112C   25171.86872770 -.00000081  00000-0  72093-5 0  9997
2 15503  64.9953  20.5030 0011409  96.8656 263.3704 13.87540090 45929
Source of the keplerian elements: AFSPC